CAPE
261 403 820 1054 997 955 1722 1750 1528 1558 2291 2766 2730 2727 2715 2746 3029 2481 2111 2326 2011 1819 1995 2008 1491 1280 738 1247 775 817 312 979 1127 776 1005 1606 945 608 435 533 275 425 582 901 811 857 689 900 911 785 908 828 842 900 830 786 763 692 700 736 762 751 670
206 201 421 768 922 1061 1799 1840 1515 2249 2458 2567 2647 2837 2616 2634 2751 2179 2219 2140 2000 1894 1934 1646 1530 947 918 798 1218 858 846 868 943 532 688 693 722 602 575 683 606 455 667 829 858 818 810 728 766 846 770 802 784 791 704 684 708 732 540 676 655 796 773
553 408 409 679 893 1009 2278 2025 1898 2082 2526 2406 2060 2586 2593 2703 2499 2216 2095 1926 2181 2085 1920 1376 1324 1084 907 1112 850 1011 835 704 384 696 557 620 696 358 297 397 240 542 496 402 544 874 753 780 703 852 785 754 798 822 685 620 729 697 626 699 693 555 644
1251 1473 1471 1121 1097 1458 1956 1985 2663 2041 2595 2452 2582 2351 2622 2757 2371 2316 1930 1768 2168 2106 1433 1505 1140 1170 1019 906 867 971 1070 903 573 441 441 401 98 273 370 437 640 497 1077 463 521 440 528 574 633 754 755 828 856 826 617 583 571 603 614 620 767 676 785
1298 1756 1262 1960 1901 1864 1726 2515 2369 2328 2199 2043 2231 2628 2572 2710 2266 2080 1837 1583 1538 1672 1522 1361 985 1166 1439 1281 1037 1101 1070 1048 831 559 418 580 567 547 217 47 256 348 363 240 640 891 465 755 592 601 721 852 610 618 890 759 557 613 487 595 788 749 901
1474 1154 1046 1336 980 1953 1721 1833 1870 1662 2339 2063 2301 2514 2167 2209 1695 1324 1267 1484 1482 1388 1558 1407 1428 1600 1564 1183 798 858 948 889 545 662 651 426 442 462 332 224 53 254 99 408 330 282 423 538 562 492 518 305 332 428 488 470 501 505 497 696 905 930 1016
1078 2404 2060 1354 1808 2016 1491 891 1319 2022 2114 2655 2871 2321 1596 1328 1403 1241 1038 1063 961 1371 1356 1359 1482 1592 1425 1262 1188 1237 882 748 649 505 485 462 464 443 310 416 490 145 373 612 599 357 467 603 702 740 590 571 712 589 710 752 825 822 844 860 954 982 1012
768 1854 1569 1335 1102 1427 913 1020 2421 1930 1570 2056 1887 1796 1207 1223 1555 1305 923 622 682 743 691 860 1464 1556 1283 1151 1302 985 973 738 785 791 833 628 655 573 454 391 480 686 725 465 824 771 487 650 529 564 731 559 641 880 883 882 916 782 794 888 791 661 687
895 1327 2004 1334 1572 1254 1184 1704 2259 2406 2495 2026 1735 1571 1263 1180 1438 1532 885 663 767 815 836 761 964 1326 1597 1252 1059 1050 1035 981 948 940 817 738 606 246 189 208 493 412 382 371 220 755 812 839 689 933 942 849 846 950 931 948 998 1070 839 833 806 752 770
351 2672 2437 1590 1219 1574 1134 1571 2382 2402 2506 2458 2244 1933 1210 1450 1851 1293 481 264 464 602 855 728 728 779 1413 1344 930 843 915 883 938 602 327 175 327 118 78 9 1 162 715 9 147 230 477 421 503 674 839 933 845 835 880 955 1182 1357 1077 866 811 774 788
222 3318 2731 2599 2353 2081 1973 1767 1924 2522 2348 2146 1933 1620 1305 1206 1676 1357 800 432 503 504 630 805 920 907 1132 1135 856 698 1004 830 714 639 602 385 103 97 22 0 11 96 16 119 173 526 706 662 507 632 874 915 812 745 748 876 1117 1242 1236 1222 1102 984 778
1246 3342 3329 3012 3009 3198 2895 2683 2568 2827 2733 2302 2040 1863 1782 1633 1527 1189 942 796 867 567 524 747 536 1088 1045 857 872 1122 842 894 772 632 639 556 357 212 158 126 176 70 54 10 26 273 111 345 414 476 818 858 798 686 692 799 1073 1324 1396 1266 1153 1036 921
933 3565 3789 3176 4193 3170 3452 3442 3069 2676 2848 2738 2301 1992 2207 1740 1561 1300 1496 1347 966 534 734 403 272 485 398 480 838 1138 948 958 955 871 511 745 612 470 195 80 7 22 128 66 106 25 31 102 337 670 602 695 810 760 732 757 700 1348 1513 1555 1436 1288 1174
428 384 3342 3854 3876 3250 3175 3383 3017 2671 2509 2484 2211 1932 2419 2030 1853 1563 1710 1206 632 550 819 437 930 812 822 536 960 1248 1019 812 1031 905 979 815 922 553 286 249 114 296 508 402 234 204 206 46 138 202 315 438 338 402 516 554 590 973 1729 1824 1666 1468 1264
303 444 1309 3832 4061 3346 3093 3584 3046 2596 2413 2207 1896 1841 2302 2091 1941 2107 1378 702 1725 774 1037 844 1119 965 737 1156 1226 988 929 1009 904 953 1057 883 952 775 673 617 463 602 718 755 605 441 292 186 200 423 510 428 486 658 856 673 564 636 1393 1791 1580 1445 1171
28 358 798 2826 2980 3503 3907 2964 3281 3432 2557 2231 2077 2376 2323 2113 2105 1724 1000 1298 633 1149 1023 942 1074 1153 1136 1233 1263 1310 1035 1118 1002 1038 1006 987 902 891 775 623 815 567 670 787 733 733 705 823 775 274 222 417 482 487 458 615 895 894 907 869 1279 1322 1024
143 238 322 1244 3693 3417 2897 2619 2505 3120 3370 2668 2419 2732 2525 2422 1858 1273 779 723 596 457 467 655 1579 1520 1596 1574 1580 1451 1325 1327 1270 1200 1207 1150 906 858 864 946 939 1027 1082 1186 1158 1070 867 754 777 192 99 192 170 278 415 675 776 676 477 435 507 932 1182
164 174 542 1491 1620 3061 3189 2878 3236 3286 2996 2646 2602 2855 2613 2191 1627 1039 917 784 601 507 620 754 1647 1584 1834 1776 1656 1644 1470 1332 1379 1322 1387 1310 1276 1193 1146 1137 1215 1254 1307 1268 1097 1309 1218 654 582 542 489 296 262 374 540 648 506 211 209 470 613 743 1095
588 632 1061 1625 3041 3468 3695 3330 3549 3436 3040 2638 2661 2693 2377 2128 1231 1106 892 710 652 733 656 734 1551 1724 2008 1892 1772 1531 1417 1385 1288 1281 1329 1323 1267 1348 1312 1388 1322 1256 1219 1119 1181 1064 927 856 671 580 628 522 779 522 390 312 584 80 66 412 531 641 693
157 162 434 668 884 1729 3854 3680 3137 3736 3746 2400 2077 1969 1672 1698 1186 1104 993 867 822 876 356 1060 1312 2040 1964 1982 1892 1688 1537 1437 1234 1200 1203 1309 1360 1496 1467 1298 1299 1297 1015 1044 1120 1073 991 656 464 559 713 1158 1218 1092 810 683 416 72 27 30 184 506 567
632 618 590 687 1124 937 3892 4043 4024 4007 3112 2766 2448 2010 1450 1526 1436 1045 1106 861 539 506 498 1185 1297 1843 1900 1945 2010 1937 1702 1534 1351 1174 1249 1226 1340 1433 1432 1352 1438 1440 1385 1135 1068 894 905 895 816 729 592 1277 805 730 713 492 363 6 0 0 0 332 360
176 200 373 775 1478 1922 3887 4544 4446 3271 3176 2954 2678 2073 1624 1611 1557 1294 975 556 508 423 604 1544 1808 1776 1745 1852 2039 2037 1691 1420 1402 1219 1190 1287 1269 1308 1347 1529 1811 1940 2005 1591 1139 835 610 600 676 694 472 940 1155 571 718 322 108 7 0 0 0 0 163
18 80 212 1462 975 1682 3907 4602 4364 3457 3140 3132 2782 2540 1776 1794 1595 1413 1192 780 494 270 848 1505 1821 1716 1668 1662 1850 1832 1661 1203 1218 1278 1180 1283 1182 1230 1260 1481 1619 1560 1990 1479 1108 822 552 500 513 552 569 474 541 613 708 637 319 1 0 0 0 0 510
81 157 318 672 1980 2097 4357 4432 4694 3845 3281 3051 2779 2473 1713 1537 1068 1238 1149 1053 412 437 1141 1217 1303 1436 1640 1647 1604 1688 1613 1369 1269 1371 1343 1266 1169 1190 1301 988 1277 1590 1776 1250 1049 638 369 259 378 620 685 688 617 211 400 407 410 16 0 0 0 64 446
115 52 477 1125 1736 2240 2957 4423 4655 4418 4151 3324 2769 1997 1348 1061 767 1581 1630 865 654 984 1096 1414 1553 1596 1790 1848 1830 1935 1705 1511 1327 1197 1220 1333 1172 1008 1003 1122 1120 1214 1246 820 778 797 909 527 320 488 602 358 219 288 312 305 123 0 0 0 162 9 476
463 419 1163 1710 1891 2917 4566 4629 5206 4003 3350 2950 2428 2108 1307 954 882 1264 984 882 792 831 1302 1532 1748 1959 1931 1847 1910 2036 1792 1328 1544 1305 1212 1272 1418 1333 1412 1354 916 650 320 530 650 770 786 646 244 276 234 79 88 134 452 401 648 570 226 0 0 0 96
321 318 331 475 1557 2815 4171 4474 4786 3658 3034 2632 2294 1801 1186 922 964 526 620 1160 1314 1435 1659 2131 2175 2099 1954 2084 1914 1880 1727 1485 1500 1387 1159 1270 1372 1095 908 1011 782 647 662 586 625 762 651 690 743 482 624 592 276 203 225 566 542 668 374 339 314 0 57
177 242 124 367 3139 3629 3902 3668 4262 3190 2559 1774 1706 1604 1323 1186 580 704 1658 1991 1905 2044 2267 2756 2867 2526 2399 2035 1908 1808 1632 1404 1537 1446 1522 1616 1158 1239 1723 1385 1316 1012 1250 932 940 1227 1147 1123 1118 1065 530 343 31 68 84 178 404 522 725 633 358 0 288
524 438 566 3189 3728 3783 3484 2802 2435 2245 1397 1356 1490 1120 924 806 1365 1980 2455 2303 2941 2900 2800 3396 2973 3219 2803 2346 2124 1732 1645 1674 1640 1501 1237 1124 1030 899 943 1458 832 701 797 1281 1320 1235 1082 1055 1223 1402 953 422 315 458 276 220 453 827 804 601 316 230 262
1937 1896 1982 2674 2493 2755 2808 2533 1376 1210 1404 1167 1370 1056 719 1107 2457 2507 2490 1798 3425 2793 2050 2002 2286 2299 2738 2511 2122 2042 1666 1908 1624 1746 1979 1661 1232 1141 1416 1437 613 495 600 1373 1648 1474 1312 1284 1076 1303 810 598 530 565 658 534 669 463 290 366 410 251 226
1768 1714 1705 2034 2210 2702 2035 1933 1355 1455 929 1263 2345 3179 3658 2917 2509 2725 3360 3151 3204 2295 2208 2088 2039 1580 1433 1233 1399 2047 1866 1984 1763 1422 1390 1370 1295 1202 1027 736 1018 1484 1149 1117 1150 1335 1479 1330 859 860 950 745 674 782 620 778 568 404 267 330 291 240 0
2000 2025 1426 1232 2029 1826 1458 1653 1570 1666 2552 1910 2125 3355 3151 3236 3387 3497 3110 2954 2635 2480 2175 1986 1743 1383 1326 1547 1865 1889 1563 958 834 1040 976 1155 1139 884 1066 546 855 1163 1244 1014 934 1069 1392 1444 1170 904 803 787 962 786 905 838 921 651 375 0 0 0 0
1826 1428 1217 664 750 1267 1773 1252 1269 1541 1795 2493 2117 1668 1052 930 1509 2520 2708 2480 2482 1958 2245 1672 1331 1077 1278 1364 1496 1316 955 769 719 821 1209 735 664 782 688 1343 1425 1343 1195 1193 841 740 846 733 734 840 435 538 545 783 906 1160 569 93 41 38 0 0 0
1996 2106 2546 1812 1650 1632 1461 1745 1799 1968 1959 2139 1564 1222 808 709 757 1196 1457 1076 1103 1668 1843 1667 1475 1252 1004 815 735 811 771 1080 574 584 529 345 276 308 378 586 384 482 591 446 499 527 458 461 538 566 176 438 536 516 674 485 16 0 0 0 0 0 0
1625 1168 1384 1434 1384 1313 1403 1707 1783 2170 2253 2280 1944 1600 1467 1112 513 210 895 1419 1280 1463 2079 2073 1898 1481 1356 1158 1190 1035 1394 879 930 736 620 931 1063 525 306 17 54 308 0 0 0 0 3 62 45 24 1 19 295 215 240 46 0 0 0 0 0 0 0
1166 1334 1836 1769 2064 2162 1612 1615 2221 2517 2276 1906 1878 1638 1541 1180 970 248 58 672 899 1078 2160 1916 1303 1016 633 736 554 880 669 477 312 318 529 592 880 350 0 0 0 0 77 0 0 0 0 0 0 0 0 0 0 0 0 0 0 0 0 0 0 0 0
1616 1608 1841 1722 1945 2072 2357 2552 2402 2228 2024 1860 1744 1361 1101 958 542 676 607 1216 1257 989 1388 1158 1389 1093 477 433 266 204 570 356 351 423 1301 1013 526 384 410 0 0 0 0 0 0 0 0 0 0 0 0 0 0 0 0 0 0 0 0 0 0 0 0
1361 1046 895 1266 1778 2132 2493 2261 1890 1626 1451 1664 1421 1023 997 360 632 997 544 1120 860 1047 1601 1221 1446 1358 856 532 691 1457 1284 628 952 949 746 789 581 866 693 498 368 346 314 209 0 0 0 0 0 0 0 0 0 0 0 0 0 0 0 0 0 0 0
Wind_Speed
27 25 27 26 25 25 26 27 28 26 25 27 29 32 30 28 30 33 36 34 34 33 30 30 29 28 25 25 26 28 27 28 31 31 31 32 33 33 31 33 31 31 31 31 32 32 33 33 33 33 34 35 34 34 34 36 37 36 37 38 38 38 37
33 28 26 26 24 26 26 27 28 27 27 28 30 32 31 31 33 35 35 36 36 35 33 32 31 31 26 25 27 28 29 31 31 32 33 34 35 35 35 35 36 33 34 35 34 34 33 33 34 35 34 35 35 35 36 37 37 38 38 39 39 40 39
31 29 28 27 23 24 27 26 26 28 28 30 32 32 32 31 34 35 35 36 36 37 35 33 32 33 28 27 27 28 30 30 31 35 36 34 36 37 36 37 35 35 35 35 36 35 35 34 35 34 35 35 36 37 38 38 39 40 40 40 40 40 40
30 29 26 28 26 23 27 26 26 28 27 31 33 35 33 32 34 32 33 35 36 37 35 32 34 32 30 27 28 29 31 32 33 35 36 36 nan 37 37 36 37 36 37 37 35 34 34 35 34 35 35 36 37 39 39 39 41 42 42 41 41 41 41
35 30 25 32 29 17 26 27 28 27 29 30 32 33 34 33 32 30 31 33 35 35 33 32 34 33 31 28 29 29 32 33 36 36 36 38 38 38 36 nan 35 35 36 36 37 36 36 36 36 35 36 37 37 38 40 41 42 43 43 42 41 41 41
34 30 26 33 30 17 22 30 31 31 30 31 32 33 34 34 32 32 34 35 35 34 32 33 35 35 32 30 29 31 32 35 35 37 38 38 39 39 38 36 nan 35 nan 37 37 38 36 37 37 36 36 36 36 37 39 41 43 43 42 42 41 41 42
27 31 30 32 33 24 21 25 30 31 30 29 31 32 33 33 32 33 35 36 37 37 35 35 36 37 34 31 31 32 35 36 37 38 39 39 39 39 37 36 35 36 37 37 39 39 39 39 39 39 39 39 39 39 40 42 43 44 43 43 42 41 42
25 27 28 30 34 29 25 21 28 30 29 29 32 33 34 34 34 34 36 36 37 39 36 37 36 36 36 33 33 35 36 36 38 39 39 39 39 38 37 36 34 36 37 37 38 41 40 40 40 41 41 41 41 41 40 41 42 43 43 44 44 41 41
23 23 28 26 31 33 26 25 28 30 32 33 34 32 32 31 34 35 36 35 36 38 38 38 38 36 38 36 35 36 36 36 38 39 39 39 38 37 36 34 36 37 37 37 37 39 40 41 42 43 44 43 43 43 42 42 42 44 44 44 44 43 43
21 28 30 26 21 31 32 32 31 30 32 33 33 33 32 31 33 35 35 34 36 38 39 37 39 40 38 39 37 37 37 39 39 39 39 38 37 35 nan nan nan 38 39 nan 38 39 41 42 42 44 45 44 44 44 44 44 44 44 44 44 45 44 44
23 29 33 28 24 29 35 36 33 32 35 33 33 32 31 31 34 35 35 35 38 38 38 34 40 42 42 40 39 38 41 43 42 39 37 34 34 nan nan nan nan nan nan 39 41 41 41 41 41 41 42 43 44 43 43 45 46 45 45 45 46 46 46
25 31 32 32 32 32 36 37 34 33 35 34 34 34 32 33 36 35 34 36 40 40 37 35 39 44 44 41 37 38 43 43 41 40 38 36 35 35 35 35 36 nan nan nan nan 41 41 41 42 42 43 44 44 45 44 44 47 49 48 46 47 48 48
22 30 36 36 37 35 35 35 36 36 37 36 37 36 34 37 36 36 35 38 43 37 35 39 40 39 42 37 38 41 44 43 41 38 37 37 36 37 37 nan nan nan 39 nan 41 nan nan 42 42 44 43 43 44 45 45 45 46 50 50 49 49 49 48
26 26 32 37 42 39 37 37 37 38 38 38 36 34 32 36 37 38 38 41 45 39 40 42 41 40 37 35 37 45 45 40 40 39 38 38 39 39 39 38 39 40 42 43 43 42 42 nan 43 43 44 43 43 43 45 46 46 50 51 49 49 49 47
33 31 29 39 40 43 38 37 40 38 37 38 37 35 35 36 39 40 42 42 41 42 43 42 39 38 36 37 41 45 42 40 38 38 39 40 40 41 41 42 42 45 46 47 45 45 43 43 43 44 43 44 44 45 47 46 45 47 51 51 50 49 46
nan 32 38 40 41 42 43 40 38 38 37 37 38 38 38 38 41 44 45 44 44 44 43 41 35 36 36 40 44 46 43 40 39 40 40 40 41 42 42 43 45 46 48 48 47 46 46 45 45 43 44 45 45 45 46 46 48 53 53 52 50 49 46
23 26 37 43 45 45 44 42 38 35 37 38 39 40 39 39 43 45 45 45 44 45 42 38 34 36 39 42 46 46 43 41 41 41 42 42 43 43 44 46 46 48 49 49 48 48 47 47 46 45 nan 45 44 45 47 49 50 51 50 48 48 47 46
25 23 28 41 45 46 44 43 42 39 40 41 41 43 41 40 42 45 43 44 43 43 41 35 35 41 43 44 46 45 43 43 43 44 44 44 45 45 46 47 48 50 50 49 48 48 48 47 47 48 48 47 46 46 48 50 51 52 49 48 47 47 45
26 27 28 31 36 44 45 42 42 41 41 39 40 44 43 40 39 41 42 42 44 42 40 32 39 44 45 44 45 44 43 44 45 45 45 46 46 47 47 49 50 50 49 48 48 47 45 46 49 49 48 46 48 48 48 46 52 nan nan 49 47 45 43
26 25 24 27 29 33 42 39 39 39 42 39 32 32 35 33 38 41 42 45 45 46 29 31 39 45 46 45 44 44 44 45 45 46 47 47 48 48 49 50 50 50 49 47 47 45 45 47 48 49 48 48 48 47 46 45 52 nan nan nan 44 42 41
29 27 26 25 26 24 35 36 38 40 42 37 34 37 37 36 41 45 44 44 45 37 26 34 40 41 45 46 46 45 45 46 46 47 48 48 48 49 50 51 51 50 49 48 46 44 44 46 47 47 47 50 47 47 45 46 50 nan nan nan nan 39 37
29 25 23 23 22 22 28 34 36 38 37 35 37 40 40 42 46 49 49 45 40 29 30 39 43 45 46 46 46 46 46 46 46 47 48 49 49 50 50 51 51 51 49 45 43 43 43 43 45 46 46 48 47 46 47 46 54 nan nan nan nan nan 34
nan nan 22 26 23 21 24 31 34 36 36 38 40 40 43 46 49 51 46 41 33 29 35 43 44 46 47 46 47 47 47 47 47 48 49 50 50 50 50 50 52 51 52 46 42 41 41 42 43 44 45 44 43 44 46 44 46 nan nan nan nan nan 34
nan 25 25 25 28 24 27 29 34 40 38 41 41 42 49 49 50 45 44 37 30 30 38 41 42 44 45 45 47 47 48 49 48 49 50 50 51 51 51 50 51 52 54 47 40 39 41 42 43 44 45 44 43 42 42 40 40 nan nan nan nan nan 32
26 nan 33 30 29 28 28 30 32 40 39 42 42 46 49 46 44 42 37 30 28 34 39 39 40 44 44 45 46 47 47 48 49 49 50 50 51 51 49 50 51 52 52 45 40 40 41 41 40 41 43 42 43 43 41 38 37 nan nan nan 41 nan 30
30 32 37 31 30 31 35 33 39 42 41 43 46 58 51 43 39 35 30 27 29 35 38 40 42 46 45 45 46 47 47 48 50 49 49 50 52 50 50 50 50 49 45 40 39 40 40 39 39 38 38 nan nan 38 38 38 40 44 43 nan nan nan nan
33 33 34 34 32 35 34 35 40 43 41 43 51 51 47 44 40 31 27 30 33 33 37 42 46 48 47 46 47 48 48 48 48 48 48 49 50 51 51 51 51 49 44 38 37 39 36 35 36 36 38 37 32 29 28 36 37 37 40 40 36 nan nan
34 35 38 35 43 41 36 38 43 47 48 50 49 44 39 36 32 27 29 35 33 33 38 43 46 47 46 45 46 48 47 45 46 47 49 52 52 51 49 49 49 47 41 39 39 39 35 33 35 37 39 37 nan nan nan 34 30 33 35 37 33 nan 24
36 41 38 45 45 42 41 43 35 38 46 45 41 40 35 29 25 30 33 33 34 36 39 40 43 45 44 44 44 44 44 44 46 49 52 53 52 51 48 48 48 41 31 38 43 41 37 34 35 39 44 41 38 42 41 41 41 35 34 34 28 28 26
43 45 51 47 47 45 48 40 42 30 35 40 38 35 34 30 32 33 33 35 39 42 43 43 42 42 40 41 43 43 42 46 52 52 53 54 54 53 51 50 50 47 40 41 44 42 38 37 37 40 43 40 39 41 41 42 41 41 39 26 24 21 22
46 47 52 47 48 43 44 40 43 41 42 35 38 36 33 31 35 38 38 38 41 44 45 45 44 42 41 39 38 39 42 48 53 55 54 55 56 55 50 48 49 48 47 44 43 41 42 42 41 41 42 40 39 40 41 40 42 43 36 26 24 20 nan
48 47 50 49 42 38 40 43 44 43 43 42 35 37 39 38 39 42 38 39 41 42 44 44 44 44 43 40 37 44 52 54 51 52 58 57 55 54 50 46 49 49 47 45 43 42 42 43 44 43 38 40 41 41 41 41 41 38 35 nan nan nan nan
48 45 46 48 36 33 34 43 45 46 42 43 42 40 43 43 39 38 40 42 44 43 42 44 45 47 46 45 42 45 52 61 57 57 59 58 55 51 52 51 50 48 45 44 42 41 40 39 40 40 38 38 38 40 41 43 44 nan nan nan nan nan nan
48 44 41 45 33 37 39 44 47 43 42 44 44 43 44 38 33 33 39 43 48 48 50 50 51 51 49 49 50 52 57 60 63 61 59 58 54 54 53 47 46 46 47 46 44 43 41 40 39 38 37 36 38 38 40 41 nan nan nan nan nan nan nan
49 38 31 43 37 45 46 45 44 43 45 46 45 44 41 38 36 41 44 49 49 50 50 52 54 56 54 55 54 58 59 61 59 59 57 58 59 58 53 nan nan 48 nan nan nan nan nan nan nan nan nan nan 37 37 40 nan nan nan nan nan nan nan nan
49 44 41 45 48 51 54 47 46 47 49 47 48 45 41 41 42 42 nan 53 54 53 54 52 53 54 54 56 57 58 58 57 56 57 59 58 57 59 nan nan nan nan nan nan nan nan nan nan nan nan nan nan nan nan nan nan nan nan nan nan nan nan nan
48 46 48 51 52 52 51 53 52 50 49 48 46 45 43 43 47 47 52 53 52 53 54 55 55 55 53 55 53 55 60 58 56 58 57 55 51 55 57 nan nan nan nan nan nan nan nan nan nan nan nan nan nan nan nan nan nan nan nan nan nan nan nan
50 51 51 48 48 49 49 48 50 50 50 48 47 44 43 48 52 49 53 55 54 54 57 56 56 53 51 51 57 59 55 53 54 55 55 52 52 51 52 52 50 48 46 48 nan nan nan nan nan nan nan nan nan nan nan nan nan nan nan nan nan nan nan
Wind_Direction
312 310 303 305 304 304 303 305 302 303 302 297 296 296 298 296 295 296 298 300 301 298 301 303 304 304 307 310 313 313 313 314 317 317 316 313 309 310 313 312 314 314 315 314 313 315 313 313 315 313 312 312 312 312 313 313 314 314 316 315 315 315 315
308 305 305 306 301 302 304 305 310 307 308 302 298 298 299 299 296 297 296 300 301 300 300 302 304 303 306 308 310 312 315 317 318 316 316 317 312 312 315 313 311 314 317 318 316 313 315 317 315 311 309 309 310 310 309 309 312 313 313 314 314 314 314
297 305 304 300 299 301 301 308 314 312 312 308 307 306 305 303 301 300 298 302 303 301 299 301 303 302 305 308 310 312 314 315 316 318 319 320 320 315 310 308 312 315 313 315 318 320 317 314 309 310 309 309 309 309 309 310 312 312 313 314 313 313 312
288 288 290 288 295 296 304 312 315 313 310 313 313 313 310 309 304 302 304 309 308 304 301 302 303 302 304 308 310 312 314 314 315 316 318 316 nan 312 310 312 314 314 315 310 310 313 315 314 315 313 312 310 311 310 310 311 313 314 314 314 313 311 311
297 294 297 285 273 284 304 311 317 316 320 320 315 313 314 314 309 307 310 314 311 306 304 305 304 303 303 309 311 314 313 315 316 316 317 317 316 312 312 nan 312 310 309 313 317 317 315 313 313 314 313 312 310 311 311 310 311 312 313 313 312 311 310
295 301 304 292 305 313 317 319 330 333 327 325 321 318 321 322 318 320 317 314 309 306 304 306 305 304 306 310 313 312 311 314 314 316 317 316 315 315 317 314 nan 315 nan 314 316 314 314 315 315 314 314 313 312 311 311 311 312 312 313 312 313 312 312
278 292 297 299 300 305 322 330 330 326 324 321 320 322 328 330 326 321 316 315 313 309 311 310 307 306 308 311 314 314 314 316 316 318 318 318 317 315 314 315 316 313 317 317 317 317 319 319 319 317 317 317 316 314 312 313 313 313 313 314 314 313 312
284 286 299 300 303 313 331 330 323 328 327 322 318 328 332 328 326 323 319 316 315 315 315 313 308 307 309 313 314 316 316 317 317 319 318 319 317 317 315 317 316 317 316 320 321 322 322 320 319 318 318 317 315 315 313 313 314 313 314 314 313 314 313
285 282 292 306 310 313 327 325 320 319 319 320 322 323 326 327 325 321 318 317 314 314 313 311 312 313 314 315 315 317 316 315 317 319 320 320 319 320 320 321 320 318 315 316 316 317 319 320 320 320 319 319 318 317 317 315 315 315 315 314 315 316 315
267 281 287 300 307 299 307 312 317 315 316 317 318 318 324 321 317 317 317 319 316 318 313 311 316 320 317 316 315 317 316 316 318 322 323 325 320 321 nan nan nan 311 311 nan 313 316 319 322 324 322 321 320 319 319 319 318 317 317 317 315 313 313 314
284 290 300 308 304 304 313 314 316 312 311 314 313 316 319 318 316 315 316 318 318 314 310 314 317 319 318 318 317 318 317 318 320 322 324 324 322 nan nan nan nan nan nan 318 319 319 319 318 316 316 317 318 315 315 317 319 320 319 318 317 315 315 316
281 288 291 297 303 302 303 306 311 309 309 311 313 317 318 315 314 317 314 315 313 307 309 316 315 315 316 318 316 315 317 317 320 324 326 326 324 323 319 314 312 nan nan nan nan 316 317 316 317 317 318 318 318 318 319 318 319 318 318 319 318 318 318
272 284 291 293 294 301 300 302 309 313 311 310 312 314 313 315 316 315 309 308 301 303 312 311 310 309 311 314 314 314 316 318 321 324 327 323 320 319 320 nan nan nan 315 nan 316 nan nan 319 320 317 316 317 317 316 316 318 319 319 319 320 321 321 318
287 281 289 295 297 303 306 308 310 310 311 312 309 310 309 310 310 308 305 305 305 317 309 307 308 308 305 305 307 311 315 318 321 324 324 321 318 317 318 318 319 321 320 318 320 320 319 nan 317 316 315 314 315 318 320 320 320 317 319 320 321 320 318
297 296 292 296 299 304 309 308 309 310 310 310 310 315 314 311 308 303 301 302 302 302 301 303 306 305 301 302 307 309 312 315 319 320 320 320 318 318 320 321 322 324 323 320 319 319 320 319 318 317 317 319 322 323 321 319 317 316 317 320 322 320 317
nan 299 305 306 310 308 306 310 308 310 311 308 312 312 312 310 307 303 302 302 305 304 302 299 302 302 303 305 307 309 313 317 319 320 319 319 320 320 321 323 324 323 321 320 319 318 319 318 318 321 321 319 318 318 318 319 313 314 320 323 322 320 316
289 299 307 310 311 311 312 313 312 310 308 309 308 307 308 307 304 304 305 309 304 302 302 302 306 307 305 304 306 309 314 318 321 322 321 321 322 321 322 324 323 321 320 320 320 320 319 321 323 321 nan 319 321 321 321 316 316 322 328 329 328 322 317
298 302 297 308 312 310 311 313 311 313 311 308 307 305 303 302 305 304 309 307 302 299 295 298 310 308 301 301 304 310 317 321 323 323 323 322 323 322 322 322 320 320 320 319 321 320 319 320 321 320 321 322 322 319 316 318 322 328 331 331 329 324 318
282 286 291 289 297 308 311 311 308 308 310 312 310 305 298 296 299 309 307 301 296 295 298 311 303 302 301 304 309 315 320 323 323 323 323 322 321 321 320 319 320 319 319 320 321 320 318 321 322 320 319 320 319 321 320 320 326 nan nan 330 329 327 323
293 296 299 302 300 298 307 305 305 302 295 296 295 282 264 268 299 305 299 295 298 292 304 303 298 300 305 310 315 320 323 323 323 322 321 320 320 319 318 317 317 318 318 320 320 320 321 322 322 320 320 320 321 320 320 322 328 nan nan nan 328 329 325
293 295 296 297 294 292 298 307 303 296 304 310 311 304 299 300 302 301 290 283 281 287 306 307 306 307 310 315 319 321 323 323 322 320 319 318 316 315 315 315 316 317 319 323 322 318 318 320 319 317 318 319 321 321 323 325 328 nan nan nan nan 331 326
301 306 307 303 297 296 297 309 304 306 312 310 305 309 309 304 300 290 280 278 285 296 305 308 311 314 315 317 319 321 321 320 317 316 315 314 312 313 313 314 315 315 315 318 319 319 319 319 317 318 317 320 324 324 324 326 325 nan nan nan nan nan 320
nan nan 297 301 304 300 294 303 307 306 303 305 307 311 304 300 289 284 292 303 304 301 307 309 311 312 315 317 318 319 318 316 314 313 312 311 311 311 311 312 314 316 315 319 321 320 320 319 318 317 318 319 322 324 324 326 330 nan nan nan nan nan 319
nan 290 285 287 292 293 293 293 295 302 307 309 309 306 294 292 289 298 306 311 302 304 306 309 311 311 313 315 315 314 314 312 311 310 309 309 310 309 311 313 312 313 316 321 320 320 321 319 317 317 318 321 322 326 325 328 326 nan nan nan nan nan 314
296 nan 291 288 293 295 296 293 291 300 300 297 297 289 276 284 295 297 302 304 303 304 309 313 312 311 312 311 309 309 307 306 306 307 307 307 308 309 311 314 315 316 317 317 317 319 318 313 314 318 320 325 327 327 330 328 328 nan nan nan 315 nan 311
286 282 286 289 291 292 288 290 288 296 295 295 291 281 291 293 294 293 290 299 308 310 314 314 310 306 306 306 305 303 301 300 303 305 306 307 307 310 312 309 308 310 312 314 314 316 314 314 314 318 319 nan nan 325 327 328 319 312 314 nan nan nan nan
290 288 288 293 296 291 291 289 289 291 288 280 277 288 296 296 291 289 297 309 311 311 309 306 303 302 303 303 303 302 301 300 303 305 306 307 308 308 308 309 311 311 311 312 312 310 312 313 315 319 322 315 304 302 310 307 313 314 309 311 311 nan nan
296 297 297 298 295 295 290 290 285 284 279 277 281 278 279 287 290 299 310 310 311 305 297 295 296 300 302 302 300 299 299 301 303 308 309 307 305 307 308 308 310 311 310 308 308 309 309 310 314 317 303 299 nan nan nan 306 302 309 306 305 305 nan 313
289 292 292 288 289 291 281 268 258 271 283 281 284 288 299 301 300 306 302 302 298 297 293 291 292 295 297 297 296 297 298 299 302 306 309 309 307 305 306 301 299 297 300 307 309 311 312 312 311 306 306 310 310 307 308 310 313 308 305 296 293 299 311
279 277 276 281 283 282 276 284 288 285 272 277 283 294 304 311 303 296 293 286 281 282 281 279 282 284 287 292 296 297 299 303 307 309 307 306 306 305 304 304 308 309 310 307 310 311 310 308 307 307 306 307 304 306 309 311 310 306 300 299 282 284 291
283 283 283 285 284 285 284 289 293 291 288 290 291 296 294 290 286 282 280 281 282 283 285 287 291 291 290 290 292 297 301 302 306 307 306 306 305 304 305 309 311 309 308 309 309 309 309 311 310 305 307 307 307 308 309 310 311 310 308 288 269 280 nan
278 278 281 283 284 280 277 286 292 288 277 273 273 281 280 278 276 273 276 280 281 283 284 286 288 288 289 290 299 300 300 303 302 305 306 305 306 307 309 307 305 306 307 308 310 310 310 308 306 305 305 306 308 308 308 309 309 307 294 nan nan nan nan
277 278 281 283 278 265 272 292 288 280 284 288 286 277 274 272 269 269 277 287 289 289 289 288 289 289 289 294 299 302 304 304 312 311 307 305 305 308 309 308 308 306 309 309 305 302 302 302 302 303 303 304 306 307 308 308 307 nan nan nan nan nan nan
276 282 283 277 268 273 288 290 284 284 290 290 287 286 281 280 283 291 295 297 297 298 299 296 294 292 295 303 307 305 306 306 301 303 305 306 305 304 302 303 304 302 297 296 296 298 298 297 297 299 300 304 306 307 309 309 nan nan nan nan nan nan nan
282 281 277 273 274 285 289 289 282 282 288 289 290 285 284 286 288 284 295 297 296 295 293 293 298 299 301 301 301 300 298 301 305 305 305 300 300 296 295 nan nan 297 nan nan nan nan nan nan nan nan nan nan 304 306 308 nan nan nan nan nan nan nan nan
295 302 288 279 283 291 293 286 283 286 284 283 285 283 278 273 276 283 nan 287 291 293 296 294 295 298 300 301 301 301 302 303 303 300 300 302 301 298 nan nan nan nan nan nan nan nan nan nan nan nan nan nan nan nan nan nan nan nan nan nan nan nan nan
291 287 281 279 282 282 280 283 286 284 280 279 281 278 274 277 283 285 287 285 286 289 290 293 294 295 298 300 301 298 303 305 303 301 301 300 299 300 299 nan nan nan nan nan nan nan nan nan nan nan nan nan nan nan nan nan nan nan nan nan nan nan nan
285 282 279 279 283 286 285 283 283 283 282 281 280 277 277 283 287 287 286 287 287 287 289 292 293 297 297 296 294 295 295 297 298 299 299 298 297 296 298 297 293 289 282 284 nan nan nan nan nan nan nan nan nan nan nan nan nan nan nan nan nan nan nan